TimeCDT,TemperatureF,Dew PointF,Humidity,Sea Level PressureIn,VisibilityMPH,Wind Direction,Wind SpeedMPH,Gust SpeedMPH,PrecipitationIn,Events,Conditions,WindDirDegrees,DateUTC
12:15 AM,59.0,42.8,55,30.07,10.0,South,6.9,-,N/A,,Clear,180,2013-04-07 05:15:00
12:35 AM,59.0,42.8,55,30.07,10.0,South,8.1,-,N/A,,Clear,180,2013-04-07 05:35:00
12:55 AM,59.0,42.8,55,30.07,10.0,South,6.9,-,N/A,,Clear,190,2013-04-07 05:55:00
1:15 AM,57.2,42.8,59,30.07,10.0,South,6.9,-,N/A,,Clear,170,2013-04-07 06:15:00
1:35 AM,57.2,41.0,55,30.07,10.0,SSE,5.8,-,N/A,,Clear,160,2013-04-07 06:35:00
1:55 AM,55.4,39.2,54,30.07,10.0,SSE,6.9,-,N/A,,Clear,160,2013-04-07 06:55:00
2:15 AM,57.2,41.0,55,30.07,10.0,South,5.8,-,N/A,,Clear,180,2013-04-07 07:15:00
2:35 AM,55.4,39.2,54,30.07,10.0,South,5.8,-,N/A,,Clear,170,2013-04-07 07:35:00
2:55 AM,55.4,39.2,54,30.07,10.0,South,4.6,-,N/A,,Clear,180,2013-04-07 07:55:00
3:15 AM,55.4,39.2,54,30.07,9.0,South,4.6,-,N/A,,Clear,170,2013-04-07 08:15:00
3:35 AM,53.6,37.4,54,30.07,10.0,South,3.5,-,N/A,,Clear,190,2013-04-07 08:35:00
3:55 AM,51.8,35.6,54,30.07,8.0,Calm,Calm,-,N/A,,Clear,0,2013-04-07 08:55:00
4:15 AM,50.0,35.6,58,30.07,10.0,Calm,Calm,-,N/A,,Clear,0,2013-04-07 09:15:00
4:35 AM,48.2,33.8,58,30.07,9.0,Calm,Calm,-,N/A,,Clear,0,2013-04-07 09:35:00
4:55 AM,48.2,32.0,54,30.08,10.0,Calm,Calm,-,N/A,,Clear,0,2013-04-07 09:55:00
5:15 AM,48.2,32.0,54,30.08,8.0,Calm,Calm,-,N/A,,Clear,0,2013-04-07 10:15:00
5:35 AM,48.2,32.0,54,30.09,10.0,SSE,3.5,-,N/A,,Clear,160,2013-04-07 10:35:00
5:55 AM,48.2,33.8,58,30.09,10.0,SSE,6.9,-,N/A,,Clear,160,2013-04-07 10:55:00
6:15 AM,51.8,35.6,54,30.09,9.0,SSE,4.6,-,N/A,,Clear,160,2013-04-07 11:15:00
6:35 AM,51.8,35.6,54,30.09,9.0,SSE,4.6,-,N/A,,Clear,160,2013-04-07 11:35:00
6:55 AM,51.8,35.6,54,30.10,8.0,South,4.6,-,N/A,,Clear,170,2013-04-07 11:55:00
7:15 AM,51.8,35.6,54,30.12,8.0,South,4.6,-,N/A,,Clear,170,2013-04-07 12:15:00
7:35 AM,53.6,37.4,54,30.12,8.0,South,4.6,-,N/A,,Clear,170,2013-04-07 12:35:00
7:55 AM,55.4,39.2,54,30.13,8.0,SSE,4.6,-,N/A,,Clear,160,2013-04-07 12:55:00
8:15 AM,57.2,41.0,55,30.13,8.0,South,4.6,-,N/A,,Clear,180,2013-04-07 13:15:00
8:35 AM,57.2,41.0,55,30.13,8.0,South,4.6,-,N/A,,Clear,190,2013-04-07 13:35:00
8:55 AM,60.8,42.8,52,30.13,8.0,South,5.8,-,N/A,,Clear,190,2013-04-07 13:55:00
9:15 AM,60.8,44.6,55,30.13,9.0,South,4.6,-,N/A,,Clear,190,2013-04-07 14:15:00
9:35 AM,64.4,46.4,52,30.13,9.0,SSW,5.8,-,N/A,,Clear,200,2013-04-07 14:35:00
9:55 AM,66.2,48.2,52,30.13,8.0,SSW,8.1,-,N/A,,Clear,210,2013-04-07 14:55:00
10:15 AM,68.0,51.8,56,30.13,9.0,SSW,5.8,-,N/A,,Clear,200,2013-04-07 15:15:00
10:35 AM,68.0,51.8,56,30.13,8.0,SW,8.1,-,N/A,,Partly Cloudy,220,2013-04-07 15:35:00
10:55 AM,69.8,51.8,53,30.12,8.0,South,5.8,-,N/A,,Scattered Clouds,170,2013-04-07 15:55:00
11:15 AM,69.8,53.6,56,30.12,8.0,SW,11.5,-,N/A,,Mostly Cloudy,230,2013-04-07 16:15:00
11:35 AM,69.8,53.6,56,30.12,9.0,SSW,9.2,-,N/A,,Scattered Clouds,200,2013-04-07 16:35:00
11:55 AM,71.6,55.4,57,30.11,8.0,SSW,8.1,-,N/A,,Partly Cloudy,200,2013-04-07 16:55:00
12:15 PM,73.4,55.4,53,30.10,8.0,SSW,10.4,-,N/A,,Scattered Clouds,210,2013-04-07 17:15:00
12:35 PM,71.6,53.6,53,30.10,9.0,WSW,10.4,-,N/A,,Mostly Cloudy,240,2013-04-07 17:35:00
12:55 PM,71.6,55.4,57,30.09,10.0,South,9.2,16.1,N/A,,Unknown,180,2013-04-07 17:55:00
1:15 PM,73.4,55.4,53,30.09,9.0,SSW,8.1,-,N/A,,Mostly Cloudy,200,2013-04-07 18:15:00
1:35 PM,75.2,59.0,57,30.08,9.0,South,9.2,-,N/A,,Scattered Clouds,190,2013-04-07 18:35:00
1:55 PM,75.2,57.2,53,30.07,9.0,South,11.5,17.3,N/A,,Mostly Cloudy,190,2013-04-07 18:55:00
2:15 PM,73.4,57.2,57,30.06,9.0,South,9.2,-,N/A,,Mostly Cloudy,170,2013-04-07 19:15:00
2:35 PM,75.2,57.2,53,30.05,9.0,SSW,9.2,-,N/A,,Mostly Cloudy,210,2013-04-07 19:35:00
2:55 PM,77.0,60.8,57,30.05,8.0,South,10.4,-,N/A,,Mostly Cloudy,180,2013-04-07 19:55:00
3:15 PM,75.2,57.2,53,30.04,9.0,South,9.2,-,N/A,,Scattered Clouds,180,2013-04-07 20:15:00
3:35 PM,75.2,59.0,57,30.04,9.0,South,10.4,-,N/A,,Scattered Clouds,180,2013-04-07 20:35:00
3:55 PM,75.2,59.0,57,30.03,8.0,South,9.2,16.1,N/A,,Scattered Clouds,180,2013-04-07 20:55:00
4:15 PM,75.2,59.0,57,30.03,9.0,South,10.4,-,N/A,,Partly Cloudy,170,2013-04-07 21:15:00
4:35 PM,75.2,57.2,53,30.03,9.0,South,9.2,-,N/A,,Partly Cloudy,170,2013-04-07 21:35:00
4:55 PM,75.2,57.2,53,30.02,9.0,South,5.8,-,N/A,,Partly Cloudy,170,2013-04-07 21:55:00
5:15 PM,75.2,57.2,53,30.02,9.0,South,11.5,-,N/A,,Scattered Clouds,170,2013-04-07 22:15:00
5:35 PM,75.2,57.2,53,30.01,9.0,SE,8.1,-,N/A,,Partly Cloudy,140,2013-04-07 22:35:00
5:55 PM,73.4,57.2,57,30.01,9.0,South,8.1,-,N/A,,Clear,180,2013-04-07 22:55:00
6:15 PM,73.4,57.2,57,30.00,10.0,South,6.9,-,N/A,,Clear,170,2013-04-07 23:15:00
6:35 PM,73.4,55.4,53,30.00,9.0,South,6.9,-,N/A,,Clear,180,2013-04-07 23:35:00
6:55 PM,71.6,55.4,57,30.00,9.0,South,3.5,-,N/A,,Clear,170,2013-04-07 23:55:00
7:15 PM,69.8,53.6,56,30.00,10.0,SSE,3.5,-,N/A,,Clear,160,2013-04-08 00:15:00
7:35 PM,66.2,50.0,56,29.99,10.0,SSE,3.5,-,N/A,,Partly Cloudy,150,2013-04-08 00:35:00
7:55 PM,62.6,46.4,55,30.00,10.0,Calm,Calm,-,N/A,,Scattered Clouds,0,2013-04-08 00:55:00
8:15 PM,60.8,44.6,55,30.00,10.0,Calm,Calm,-,N/A,,Partly Cloudy,0,2013-04-08 01:15:00
8:35 PM,60.8,44.6,55,30.01,10.0,Calm,Calm,-,N/A,,Clear,0,2013-04-08 01:35:00
8:55 PM,60.8,42.8,52,30.01,10.0,SE,4.6,-,N/A,,Clear,140,2013-04-08 01:55:00
9:15 PM,60.8,44.6,55,30.01,10.0,SSE,4.6,-,N/A,,Clear,150,2013-04-08 02:15:00
9:35 PM,60.8,44.6,55,30.01,10.0,SSE,4.6,-,N/A,,Clear,150,2013-04-08 02:35:00
9:55 PM,62.6,44.6,52,30.01,10.0,SSE,4.6,-,N/A,,Clear,160,2013-04-08 02:55:00
10:15 PM,60.8,44.6,55,30.01,10.0,SSE,4.6,-,N/A,,Clear,160,2013-04-08 03:15:00
10:35 PM,60.8,44.6,55,30.01,10.0,SSE,3.5,-,N/A,,Clear,160,2013-04-08 03:35:00
10:55 PM,60.8,44.6,55,30.01,10.0,SSE,3.5,-,N/A,,Clear,150,2013-04-08 03:55:00
11:15 PM,57.2,42.8,59,30.01,10.0,Calm,Calm,-,N/A,,Clear,0,2013-04-08 04:15:00
11:35 PM,55.4,39.2,54,30.01,10.0,SSE,3.5,-,N/A,,Clear,160,2013-04-08 04:35:00
11:55 PM,55.4,39.2,54,30.01,10.0,Calm,Calm,-,N/A,,Clear,0,2013-04-08 04:55:00